Overview Statistics Trail Chart Weather Telemetry Raw packets
 

This is the latest recevied weather packets stored in our database for station/object W7BTL. If no packets are shown the sender has not sent any weather packets the latest 10 day(s).

<< 42 43 44 45 46 47 48 >>
Time Temp. Humidity Pressure Rain* Wind** Luminosity Snow
1788371565 26.67° C 51% 1016.3 hPa 0 mm - 807 W/m² -
1788371260 26.11° C 52% 1016.1 hPa 0 mm - 803 W/m² -
1788370956 25.56° C 56% 1016.2 hPa 0 mm - 787 W/m² -
1788370651 26.11° C 55% 1016 hPa 0 mm - 768 W/m² -
1788370351 25.56° C 56% 1016.2 hPa 0 mm - 750 W/m² -
1788370046 25° C 56% 1015.9 hPa 0 mm - 740 W/m² -
1788369745 25.56° C 55% 1016 hPa 0 mm - 726 W/m² -
1788369441 25.56° C 56% 1016 hPa 0 mm - 707 W/m² -
1788369136 25° C 56% 1015.7 hPa 0 mm - 685 W/m² -
1788368832 25.56° C 56% 1015.8 hPa 0 mm - 670 W/m² -
1788368527 25.56° C 56% 1015.8 hPa 0 mm - 640 W/m² -
1788368222 25° C 58% 1016 hPa 0 mm - 622 W/m² -
1788367922 24.44° C 61% 1016.1 hPa 0 mm - 608 W/m² -
1788367617 25° C 61% 1015.9 hPa 0 mm - 575 W/m² -
1788367316 24.44° C 61% 1015.9 hPa 0 mm - 536 W/m² -
1788367011 23.89° C 61% 1015.8 hPa 0 mm - 427 W/m² -
1788366711 23.89° C 62% 1016.1 hPa 0 mm - 510 W/m² -
1788366410 24.44° C 63% 1015.8 hPa 0 mm - 453 W/m² -
1788366104 23.89° C 64% 1016 hPa 0 mm - 454 W/m² -
1788365799 23.89° C 64% 1015.9 hPa 0 mm - 464 W/m² -
1788365495 23.89° C 62% 1015.9 hPa 0 mm - 419 W/m² -
1788365192 23.89° C 61% 1015.9 hPa 0 mm - 390 W/m² -
1788364886 23.89° C 62% 1015.8 hPa 0 mm - 373 W/m² -
1788364585 23.33° C 64% 1015.9 hPa 0 mm - 355 W/m² -
1788364284 23.33° C 64% 1015.8 hPa 0 mm - 334 W/m² -

* Rain latest hour (hover to see other rain measurements)
** Current wind speed in m/s (hover to see current wind gust speed)